owner,sensor,date,latitude,longitude,vertical_datum,sea_water_practical_salinity,qcFlag 
DISL,ioos:station:DISL:KATA:1,2013-04-01T00:00:00Z,30.2583,-88.2131,3.982,27.03,1111122 
DISL,ioos:station:DISL:KATA:1,2013-04-01T00:30:00Z,30.2583,-88.2131,3.954,27.04,1111122 
DISL,ioos:station:DISL:KATA:1,2013-04-01T01:00:00Z,30.2583,-88.2131,3.97,26.85,1111122 
DISL,ioos:station:DISL:KATA:1,2013-04-01T01:30:00Z,30.2583,-88.2131,3.907,26.62,1111122 
DISL,ioos:station:DISL:KATA:1,2013-04-01T02:00:00Z,30.2583,-88.2131,3.826,26.15,1111122 
DISL,ioos:station:DISL:KATA:1,2013-04-01T02:30:00Z,30.2583,-88.2131,3.759,25.44,1111122 
DISL,ioos:station:DISL:KATA:1,2013-04-01T03:00:00Z,30.2583,-88.2131,3.7,25.25,1111122 
DISL,ioos:station:DISL:KATA:1,2013-04-01T03:30:00Z,30.2583,-88.2131,3.656,24.86,1111122 
DISL,ioos:station:DISL:KATA:1,2013-04-01T04:00:00Z,30.2583,-88.2131,3.625,24.83,1111122 
DISL,ioos:station:DISL:KATA:1,2013-04-01T04:30:00Z,30.2583,-88.2131,3.617,24.79,1111122 
DISL,ioos:station:DISL:KATA:1,2013-04-01T05:00:00Z,30.2583,-88.2131,3.634,25.32,1111122 
DISL,ioos:station:DISL:KATA:1,2013-04-01T05:30:00Z,30.2583,-88.2131,3.69,24.99,1111122 
DISL,ioos:station:DISL:KATA:1,2013-04-01T06:00:00Z,30.2583,-88.2131,3.764,25.55,1111122 
DISL,ioos:station:DISL:KATA:1,2013-04-01T06:30:00Z,30.2583,-88.2131,3.824,25.74,1111122 
DISL,ioos:station:DISL:KATA:1,2013-04-01T07:00:00Z,30.2583,-88.2131,3.85,25.98,1111122 
DISL,ioos:station:DISL:KATA:1,2013-04-01T07:30:00Z,30.2583,-88.2131,3.842,26.21,1111122 
DISL,ioos:station:DISL:KATA:1,2013-04-01T08:00:00Z,30.2583,-88.2131,3.82,26.41,1111122 
DISL,ioos:station:DISL:KATA:1,2013-04-01T08:30:00Z,30.2583,-88.2131,3.807,26.5,1111122 
DISL,ioos:station:DISL:KATA:1,2013-04-01T09:00:00Z,30.2583,-88.2131,3.805,26.53,1111122 
DISL,ioos:station:DISL:KATA:1,2013-04-01T09:30:00Z,30.2583,-88.2131,3.816,26.54,1111122 
DISL,ioos:station:DISL:KATA:1,2013-04-01T10:00:00Z,30.2583,-88.2131,3.842,26.62,1111122 
DISL,ioos:station:DISL:KATA:1,2013-04-01T10:30:00Z,30.2583,-88.2131,3.854,26.63,1111122 
DISL,ioos:station:DISL:KATA:1,2013-04-01T11:00:00Z,30.2583,-88.2131,3.879,26.73,1111122 
DISL,ioos:station:DISL:KATA:1,2013-04-01T11:30:00Z,30.2583,-88.2131,3.941,26.72,1111122 
DISL,ioos:station:DISL:KATA:1,2013-04-01T12:00:00Z,30.2583,-88.2131,3.962,26.83,1111122 
DISL,ioos:station:DISL:KATA:1,2013-04-01T12:30:00Z,30.2583,-88.2131,3.981,26.78,1111122 
DISL,ioos:station:DISL:KATA:1,2013-04-01T13:00:00Z,30.2583,-88.2131,4.024,26.75,1111122 
DISL,ioos:station:DISL:KATA:1,2013-04-01T13:30:00Z,30.2583,-88.2131,4.06,26.76,1111122 
DISL,ioos:station:DISL:KATA:1,2013-04-01T14:00:00Z,30.2583,-88.2131,4.093,26.74,1111122 
DISL,ioos:station:DISL:KATA:1,2013-04-01T14:30:00Z,30.2583,-88.2131,4.135,26.79,1111122 
DISL,ioos:station:DISL:KATA:1,2013-04-01T15:00:00Z,30.2583,-88.2131,4.156,26.8,1111122 
DISL,ioos:station:DISL:KATA:1,2013-04-01T15:30:00Z,30.2583,-88.2131,4.173,26.71,1111122 
DISL,ioos:station:DISL:KATA:1,2013-04-01T16:00:00Z,30.2583,-88.2131,4.178,26.74,1111122 
DISL,ioos:station:DISL:KATA:1,2013-04-01T16:30:00Z,30.2583,-88.2131,4.186,26.76,1111122 
DISL,ioos:station:DISL:KATA:1,2013-04-01T17:00:00Z,30.2583,-88.2131,4.2,26.77,1111122 
DISL,ioos:station:DISL:KATA:1,2013-04-01T17:30:00Z,30.2583,-88.2131,4.203,26.8,1111122 
DISL,ioos:station:DISL:KATA:1,2013-04-01T18:00:00Z,30.2583,-88.2131,4.216,26.62,1111122 
DISL,ioos:station:DISL:KATA:1,2013-04-01T18:30:00Z,30.2583,-88.2131,4.239,26.61,1111122 
DISL,ioos:station:DISL:KATA:1,2013-04-01T19:00:00Z,30.2583,-88.2131,4.246,26.68,1111122 
DISL,ioos:station:DISL:KATA:1,2013-04-01T19:30:00Z,30.2583,-88.2131,4.259,26.28,1111122 
DISL,ioos:station:DISL:KATA:1,2013-04-01T20:00:00Z,30.2583,-88.2131,4.246,26.25,1111122 
DISL,ioos:station:DISL:KATA:1,2013-04-01T20:30:00Z,30.2583,-88.2131,4.216,26.22,1111122 
DISL,ioos:station:DISL:KATA:1,2013-04-01T21:00:00Z,30.2583,-88.2131,4.188,26.17,1111122 
DISL,ioos:station:DISL:KATA:1,2013-04-01T21:30:00Z,30.2583,-88.2131,4.142,26.14,1111122 
DISL,ioos:station:DISL:KATA:1,2013-04-01T22:00:00Z,30.2583,-88.2131,4.108,26.08,1111122 
DISL,ioos:station:DISL:KATA:1,2013-04-01T22:30:00Z,30.2583,-88.2131,4.083,26.03,1111122 
DISL,ioos:station:DISL:KATA:1,2013-04-01T23:00:00Z,30.2583,-88.2131,4.055,25.93,1111122 
DISL,ioos:station:DISL:KATA:1,2013-04-01T23:30:00Z,30.2583,-88.2131,4.026,25.91,1111122 
DISL,ioos:station:DISL:KATA:1,2013-04-02T00:00:00Z,30.2583,-88.2131,3.999,25.92,1111122 
DISL,ioos:station:DISL:KATA:1,2013-04-02T00:30:00Z,30.2583,-88.2131,3.97,25.89,1111122 
DISL,ioos:station:DISL:KATA:1,2013-04-02T01:00:00Z,30.2583,-88.2131,3.935,25.85,1111122 
DISL,ioos:station:DISL:KATA:1,2013-04-02T01:30:00Z,30.2583,-88.2131,3.898,25.65,1111122 
DISL,ioos:station:DISL:KATA:1,2013-04-02T02:00:00Z,30.2583,-88.2131,3.866,25.69,1111122 
DISL,ioos:station:DISL:KATA:1,2013-04-02T02:30:00Z,30.2583,-88.2131,3.825,25.63,1111122 
DISL,ioos:station:DISL:KATA:1,2013-04-02T03:00:00Z,30.2583,-88.2131,3.786,25.54,1111122 
DISL,ioos:station:DISL:KATA:1,2013-04-02T03:30:00Z,30.2583,-88.2131,3.747,25.63,1111122 
DISL,ioos:station:DISL:KATA:1,2013-04-02T04:00:00Z,30.2583,-88.2131,3.711,25.59,1111122 
DISL,ioos:station:DISL:KATA:1,2013-04-02T04:30:00Z,30.2583,-88.2131,3.684,25.45,1111122 
DISL,ioos:station:DISL:KATA:1,2013-04-02T05:00:00Z,30.2583,-88.2131,3.661,25.41,1111122 
DISL,ioos:station:DISL:KATA:1,2013-04-02T05:30:00Z,30.2583,-88.2131,3.644,25.41,1111122 
DISL,ioos:station:DISL:KATA:1,2013-04-02T06:00:00Z,30.2583,-88.2131,3.643,25.41,1111122 
DISL,ioos:station:DISL:KATA:1,2013-04-02T06:30:00Z,30.2583,-88.2131,3.64,25.45,1111122 
DISL,ioos:station:DISL:KATA:1,2013-04-02T07:00:00Z,30.2583,-88.2131,3.648,25.5,1111122 
DISL,ioos:station:DISL:KATA:1,2013-04-02T07:30:00Z,30.2583,-88.2131,3.653,25.75,1111122 
DISL,ioos:station:DISL:KATA:1,2013-04-02T08:00:00Z,30.2583,-88.2131,3.658,25.82,1111122 
DISL,ioos:station:DISL:KATA:1,2013-04-02T08:30:00Z,30.2583,-88.2131,3.665,25.9,1111122 
DISL,ioos:station:DISL:KATA:1,2013-04-02T09:00:00Z,30.2583,-88.2131,3.683,25.9,1111122 
DISL,ioos:station:DISL:KATA:1,2013-04-02T09:30:00Z,30.2583,-88.2131,3.7,25.94,1111122 
DISL,ioos:station:DISL:KATA:1,2013-04-02T10:00:00Z,30.2583,-88.2131,3.722,25.99,1111122 
DISL,ioos:station:DISL:KATA:1,2013-04-02T10:30:00Z,30.2583,-88.2131,3.745,26.0,1111122 
DISL,ioos:station:DISL:KATA:1,2013-04-02T11:00:00Z,30.2583,-88.2131,3.77,25.97,1111122 
DISL,ioos:station:DISL:KATA:1,2013-04-02T11:30:00Z,30.2583,-88.2131,3.806,25.9,1111122 
DISL,ioos:station:DISL:KATA:1,2013-04-02T12:00:00Z,30.2583,-88.2131,3.834,25.96,1111122 
DISL,ioos:station:DISL:KATA:1,2013-04-02T12:30:00Z,30.2583,-88.2131,3.874,26.04,1111122 
DISL,ioos:station:DISL:KATA:1,2013-04-02T13:00:00Z,30.2583,-88.2131,3.902,26.02,1111122 
DISL,ioos:station:DISL:KATA:1,2013-04-02T13:30:00Z,30.2583,-88.2131,3.939,25.97,1111122 
DISL,ioos:station:DISL:KATA:1,2013-04-02T14:00:00Z,30.2583,-88.2131,3.976,25.92,1111122 
DISL,ioos:station:DISL:KATA:1,2013-04-02T14:30:00Z,30.2583,-88.2131,4.005,25.97,1111122 
DISL,ioos:station:DISL:KATA:1,2013-04-02T15:00:00Z,30.2583,-88.2131,4.017,26.01,1111122 
DISL,ioos:station:DISL:KATA:1,2013-04-02T15:30:00Z,30.2583,-88.2131,4.035,26.05,1111122 
DISL,ioos:station:DISL:KATA:1,2013-04-02T16:00:00Z,30.2583,-88.2131,4.05,26.09,1111122 
DISL,ioos:station:DISL:KATA:1,2013-04-02T16:30:00Z,30.2583,-88.2131,4.073,26.1,1111122 
DISL,ioos:station:DISL:KATA:1,2013-04-02T17:00:00Z,30.2583,-88.2131,4.095,26.12,1111122 
DISL,ioos:station:DISL:KATA:1,2013-04-02T17:30:00Z,30.2583,-88.2131,4.136,26.14,1111122 
DISL,ioos:station:DISL:KATA:1,2013-04-02T18:00:00Z,30.2583,-88.2131,4.169,26.2,1111122 
DISL,ioos:station:DISL:KATA:1,2013-04-02T18:30:00Z,30.2583,-88.2131,4.191,26.26,1111122 
DISL,ioos:station:DISL:KATA:1,2013-04-02T19:00:00Z,30.2583,-88.2131,4.226,26.3,1111122 
DISL,ioos:station:DISL:KATA:1,2013-04-02T19:30:00Z,30.2583,-88.2131,4.227,26.37,1111122 
DISL,ioos:station:DISL:KATA:1,2013-04-02T20:00:00Z,30.2583,-88.2131,4.241,26.42,1111122 
DISL,ioos:station:DISL:KATA:1,2013-04-02T20:30:00Z,30.2583,-88.2131,4.224,26.44,1111122 
DISL,ioos:station:DISL:KATA:1,2013-04-02T21:00:00Z,30.2583,-88.2131,4.213,26.47,1111122 
DISL,ioos:station:DISL:KATA:1,2013-04-02T21:30:00Z,30.2583,-88.2131,4.2,26.48,1111122 
DISL,ioos:station:DISL:KATA:1,2013-04-02T22:00:00Z,30.2583,-88.2131,4.175,26.5,1111122 
DISL,ioos:station:DISL:KATA:1,2013-04-02T22:30:00Z,30.2583,-88.2131,4.162,26.52,1111122 
DISL,ioos:station:DISL:KATA:1,2013-04-02T23:00:00Z,30.2583,-88.2131,4.139,26.51,1111122 
DISL,ioos:station:DISL:KATA:1,2013-04-02T23:30:00Z,30.2583,-88.2131,4.115,26.52,1111122 
DISL,ioos:station:DISL:KATA:1,2013-04-03T00:00:00Z,30.2583,-88.2131,4.089,26.5,1111122 
DISL,ioos:station:DISL:KATA:1,2013-04-03T00:30:00Z,30.2583,-88.2131,4.061,26.49,1111122 
DISL,ioos:station:DISL:KATA:1,2013-04-03T01:00:00Z,30.2583,-88.2131,4.026,26.42,1111122 
DISL,ioos:station:DISL:KATA:1,2013-04-03T01:30:00Z,30.2583,-88.2131,3.995,26.38,1111122 
DISL,ioos:station:DISL:KATA:1,2013-04-03T02:00:00Z,30.2583,-88.2131,3.942,26.32,1111122 
DISL,ioos:station:DISL:KATA:1,2013-04-03T02:30:00Z,30.2583,-88.2131,3.903,26.35,1111122 
DISL,ioos:station:DISL:KATA:1,2013-04-03T03:00:00Z,30.2583,-88.2131,3.86,26.29,1111122 
DISL,ioos:station:DISL:KATA:1,2013-04-03T03:30:00Z,30.2583,-88.2131,3.821,26.34,1111122 
DISL,ioos:station:DISL:KATA:1,2013-04-03T04:00:00Z,30.2583,-88.2131,3.777,26.37,1111122 
DISL,ioos:station:DISL:KATA:1,2013-04-03T04:30:00Z,30.2583,-88.2131,3.753,26.37,1111122 
DISL,ioos:station:DISL:KATA:1,2013-04-03T05:00:00Z,30.2583,-88.2131,3.737,26.33,1111122 
DISL,ioos:station:DISL:KATA:1,2013-04-03T05:30:00Z,30.2583,-88.2131,3.73,26.38,1111122 
DISL,ioos:station:DISL:KATA:1,2013-04-03T06:00:00Z,30.2583,-88.2131,3.713,26.38,1111122 
DISL,ioos:station:DISL:KATA:1,2013-04-03T06:30:00Z,30.2583,-88.2131,3.703,26.34,1111122 
DISL,ioos:station:DISL:KATA:1,2013-04-03T07:00:00Z,30.2583,-88.2131,3.693,26.43,1111122 
DISL,ioos:station:DISL:KATA:1,2013-04-03T07:30:00Z,30.2583,-88.2131,3.705,26.46,1111122 
DISL,ioos:station:DISL:KATA:1,2013-04-03T08:00:00Z,30.2583,-88.2131,3.706,26.49,1111122 
DISL,ioos:station:DISL:KATA:1,2013-04-03T08:30:00Z,30.2583,-88.2131,3.722,26.48,1111122 
DISL,ioos:station:DISL:KATA:1,2013-04-03T09:00:00Z,30.2583,-88.2131,3.738,26.56,1111122 
DISL,ioos:station:DISL:KATA:1,2013-04-03T09:30:00Z,30.2583,-88.2131,3.761,26.68,1111122 
DISL,ioos:station:DISL:KATA:1,2013-04-03T10:00:00Z,30.2583,-88.2131,3.786,26.73,1111122 
DISL,ioos:station:DISL:KATA:1,2013-04-03T10:30:00Z,30.2583,-88.2131,3.819,26.77,1111122 
DISL,ioos:station:DISL:KATA:1,2013-04-03T11:00:00Z,30.2583,-88.2131,3.867,26.83,1111122 
DISL,ioos:station:DISL:KATA:1,2013-04-03T11:30:00Z,30.2583,-88.2131,3.889,26.93,1111122 
DISL,ioos:station:DISL:KATA:1,2013-04-03T12:00:00Z,30.2583,-88.2131,3.916,27.02,1111122 
DISL,ioos:station:DISL:KATA:1,2013-04-03T12:30:00Z,30.2583,-88.2131,3.926,27.08,1111122 
DISL,ioos:station:DISL:KATA:1,2013-04-03T13:00:00Z,30.2583,-88.2131,3.905,27.11,1111122 
DISL,ioos:station:DISL:KATA:1,2013-04-03T13:30:00Z,30.2583,-88.2131,3.848,27.15,1111122 
DISL,ioos:station:DISL:KATA:1,2013-04-03T14:00:00Z,30.2583,-88.2131,3.806,27.03,1111122 
DISL,ioos:station:DISL:KATA:1,2013-04-03T14:30:00Z,30.2583,-88.2131,3.783,27.04,1111122 
DISL,ioos:station:DISL:KATA:1,2013-04-03T15:00:00Z,30.2583,-88.2131,3.819,25.73,1111122 
DISL,ioos:station:DISL:KATA:1,2013-04-03T15:30:00Z,30.2583,-88.2131,3.873,27.13,1111122 
DISL,ioos:station:DISL:KATA:1,2013-04-03T16:00:00Z,30.2583,-88.2131,3.952,27.11,1111122 
DISL,ioos:station:DISL:KATA:1,2013-04-03T16:30:00Z,30.2583,-88.2131,4.02,23.45,1111122 
DISL,ioos:station:DISL:KATA:1,2013-04-03T17:00:00Z,30.2583,-88.2131,4.07,26.54,1111122 
DISL,ioos:station:DISL:KATA:1,2013-04-03T17:30:00Z,30.2583,-88.2131,4.126,25.86,1111122 
DISL,ioos:station:DISL:KATA:1,2013-04-03T18:00:00Z,30.2583,-88.2131,4.187,26.06,1111122 
DISL,ioos:station:DISL:KATA:1,2013-04-03T18:30:00Z,30.2583,-88.2131,4.15,25.88,1111122 
DISL,ioos:station:DISL:KATA:1,2013-04-03T19:00:00Z,30.2583,-88.2131,3.941,14.86,1111122 
DISL,ioos:station:DISL:KATA:1,2013-04-03T19:30:00Z,30.2583,-88.2131,3.723,14.31,1111122 
DISL,ioos:station:DISL:KATA:1,2013-04-03T20:00:00Z,30.2583,-88.2131,3.851,14.98,1111122 
DISL,ioos:station:DISL:KATA:1,2013-04-03T20:30:00Z,30.2583,-88.2131,4.027,14.6,1111122 
DISL,ioos:station:DISL:KATA:1,2013-04-03T21:00:00Z,30.2583,-88.2131,4.212,15.77,1111122 
DISL,ioos:station:DISL:KATA:1,2013-04-03T21:30:00Z,30.2583,-88.2131,4.432,16.07,1111122 
DISL,ioos:station:DISL:KATA:1,2013-04-03T22:00:00Z,30.2583,-88.2131,4.645,15.47,1111122 
DISL,ioos:station:DISL:KATA:1,2013-04-03T22:30:00Z,30.2583,-88.2131,4.718,15.33,1111122 
DISL,ioos:station:DISL:KATA:1,2013-04-03T23:00:00Z,30.2583,-88.2131,4.705,16.11,1111122 
DISL,ioos:station:DISL:KATA:1,2013-04-03T23:30:00Z,30.2583,-88.2131,4.664,16.15,1111122 
DISL,ioos:station:DISL:KATA:1,2013-04-04T00:00:00Z,30.2583,-88.2131,4.553,16.26,1111122 
DISL,ioos:station:DISL:KATA:1,2013-04-04T00:30:00Z,30.2583,-88.2131,4.417,16.44,1111122 
DISL,ioos:station:DISL:KATA:1,2013-04-04T01:00:00Z,30.2583,-88.2131,4.318,16.58,1111122 
DISL,ioos:station:DISL:KATA:1,2013-04-04T01:30:00Z,30.2583,-88.2131,4.246,16.59,1111122 
DISL,ioos:station:DISL:KATA:1,2013-04-04T02:00:00Z,30.2583,-88.2131,4.195,16.2,1111122 
DISL,ioos:station:DISL:KATA:1,2013-04-04T02:30:00Z,30.2583,-88.2131,4.15,16.02,1111122 
DISL,ioos:station:DISL:KATA:1,2013-04-04T03:00:00Z,30.2583,-88.2131,4.057,15.36,1111122 
DISL,ioos:station:DISL:KATA:1,2013-04-04T03:30:00Z,30.2583,-88.2131,4.021,15.04,1111122 
DISL,ioos:station:DISL:KATA:1,2013-04-04T04:00:00Z,30.2583,-88.2131,3.976,14.37,1111122 
DISL,ioos:station:DISL:KATA:1,2013-04-04T04:30:00Z,30.2583,-88.2131,3.92,13.59,1111122 
DISL,ioos:station:DISL:KATA:1,2013-04-04T05:00:00Z,30.2583,-88.2131,3.891,13.11,1111122 
DISL,ioos:station:DISL:KATA:1,2013-04-04T05:30:00Z,30.2583,-88.2131,3.847,12.14,1111122 
DISL,ioos:station:DISL:KATA:1,2013-04-04T06:00:00Z,30.2583,-88.2131,3.843,13.64,1111122 
DISL,ioos:station:DISL:KATA:1,2013-04-04T06:30:00Z,30.2583,-88.2131,3.876,12.61,1111122 
DISL,ioos:station:DISL:KATA:1,2013-04-04T07:00:00Z,30.2583,-88.2131,3.913,11.89,1111122 
DISL,ioos:station:DISL:KATA:1,2013-04-04T07:30:00Z,30.2583,-88.2131,3.972,14.24,1111122 
DISL,ioos:station:DISL:KATA:1,2013-04-04T08:00:00Z,30.2583,-88.2131,3.967,16.6,1111122 
DISL,ioos:station:DISL:KATA:1,2013-04-04T08:30:00Z,30.2583,-88.2131,3.952,16.34,1111122 
DISL,ioos:station:DISL:KATA:1,2013-04-04T09:00:00Z,30.2583,-88.2131,3.922,16.25,1111122 
DISL,ioos:station:DISL:KATA:1,2013-04-04T09:30:00Z,30.2583,-88.2131,3.872,14.81,1111122 
DISL,ioos:station:DISL:KATA:1,2013-04-04T10:00:00Z,30.2583,-88.2131,3.86,14.93,1111122 
DISL,ioos:station:DISL:KATA:1,2013-04-04T10:30:00Z,30.2583,-88.2131,3.86,14.61,1111122 
DISL,ioos:station:DISL:KATA:1,2013-04-04T11:00:00Z,30.2583,-88.2131,3.879,15.34,1111122 
DISL,ioos:station:DISL:KATA:1,2013-04-04T11:30:00Z,30.2583,-88.2131,3.884,16.51,1111122 
DISL,ioos:station:DISL:KATA:1,2013-04-04T12:00:00Z,30.2583,-88.2131,3.919,16.85,1111122 
DISL,ioos:station:DISL:KATA:1,2013-04-04T12:30:00Z,30.2583,-88.2131,3.975,16.85,1111122 
DISL,ioos:station:DISL:KATA:1,2013-04-04T13:00:00Z,30.2583,-88.2131,4.012,17.08,1111122 
DISL,ioos:station:DISL:KATA:1,2013-04-04T13:30:00Z,30.2583,-88.2131,4.039,17.33,1111122 
DISL,ioos:station:DISL:KATA:1,2013-04-04T14:00:00Z,30.2583,-88.2131,4.036,17.5,1111122 
DISL,ioos:station:DISL:KATA:1,2013-04-04T14:30:00Z,30.2583,-88.2131,4.043,17.64,1111122 
DISL,ioos:station:DISL:KATA:1,2013-04-04T15:00:00Z,30.2583,-88.2131,4.064,17.92,1111122 
DISL,ioos:station:DISL:KATA:1,2013-04-04T15:30:00Z,30.2583,-88.2131,4.053,18.14,1111122 
DISL,ioos:station:DISL:KATA:1,2013-04-04T16:00:00Z,30.2583,-88.2131,4.072,18.38,1111122 
DISL,ioos:station:DISL:KATA:1,2013-04-04T16:30:00Z,30.2583,-88.2131,4.109,18.67,1111122 
DISL,ioos:station:DISL:KATA:1,2013-04-04T17:00:00Z,30.2583,-88.2131,4.137,19.06,1111122 
DISL,ioos:station:DISL:KATA:1,2013-04-04T17:30:00Z,30.2583,-88.2131,4.185,19.42,1111122 
DISL,ioos:station:DISL:KATA:1,2013-04-04T18:00:00Z,30.2583,-88.2131,4.206,19.6,1111122 
DISL,ioos:station:DISL:KATA:1,2013-04-04T18:30:00Z,30.2583,-88.2131,4.222,19.77,1111122 
DISL,ioos:station:DISL:KATA:1,2013-04-04T19:00:00Z,30.2583,-88.2131,4.207,19.84,1111122 
DISL,ioos:station:DISL:KATA:1,2013-04-04T19:30:00Z,30.2583,-88.2131,4.207,19.83,1111122 
DISL,ioos:station:DISL:KATA:1,2013-04-04T20:00:00Z,30.2583,-88.2131,4.204,19.97,1111122 
DISL,ioos:station:DISL:KATA:1,2013-04-04T20:30:00Z,30.2583,-88.2131,4.248,20.09,1111122 
DISL,ioos:station:DISL:KATA:1,2013-04-04T21:00:00Z,30.2583,-88.2131,4.26,20.13,1111122 
DISL,ioos:station:DISL:KATA:1,2013-04-04T21:30:00Z,30.2583,-88.2131,4.276,20.03,1111122 
DISL,ioos:station:DISL:KATA:1,2013-04-04T22:00:00Z,30.2583,-88.2131,4.27,19.92,1111122 
DISL,ioos:station:DISL:KATA:1,2013-04-04T22:30:00Z,30.2583,-88.2131,4.274,19.89,1111122 
DISL,ioos:station:DISL:KATA:1,2013-04-04T23:00:00Z,30.2583,-88.2131,4.267,19.76,1111122 
DISL,ioos:station:DISL:KATA:1,2013-04-04T23:30:00Z,30.2583,-88.2131,4.261,19.45,1111122 
DISL,ioos:station:DISL:KATA:1,2013-04-05T00:00:00Z,30.2583,-88.2131,4.245,19.05,1111122 
DISL,ioos:station:DISL:KATA:1,2013-04-05T00:30:00Z,30.2583,-88.2131,4.225,18.46,1111122 
DISL,ioos:station:DISL:KATA:1,2013-04-05T01:00:00Z,30.2583,-88.2131,4.22,18.01,1111122 
DISL,ioos:station:DISL:KATA:1,2013-04-05T01:30:00Z,30.2583,-88.2131,4.202,18.24,1111122 
DISL,ioos:station:DISL:KATA:1,2013-04-05T02:00:00Z,30.2583,-88.2131,4.181,18.22,1111122 
DISL,ioos:station:DISL:KATA:1,2013-04-05T02:30:00Z,30.2583,-88.2131,4.168,17.54,1111122 
DISL,ioos:station:DISL:KATA:1,2013-04-05T03:00:00Z,30.2583,-88.2131,4.154,16.89,1111122 
DISL,ioos:station:DISL:KATA:1,2013-04-05T03:30:00Z,30.2583,-88.2131,4.103,16.34,1111122 
DISL,ioos:station:DISL:KATA:1,2013-04-05T04:00:00Z,30.2583,-88.2131,4.048,15.55,1111122 
DISL,ioos:station:DISL:KATA:1,2013-04-05T04:30:00Z,30.2583,-88.2131,3.99,15.14,1111122 
DISL,ioos:station:DISL:KATA:1,2013-04-05T05:00:00Z,30.2583,-88.2131,3.934,14.51,1111122 
DISL,ioos:station:DISL:KATA:1,2013-04-05T05:30:00Z,30.2583,-88.2131,3.912,14.29,1111122 
DISL,ioos:station:DISL:KATA:1,2013-04-05T06:00:00Z,30.2583,-88.2131,3.89,13.25,1111122 
DISL,ioos:station:DISL:KATA:1,2013-04-05T06:30:00Z,30.2583,-88.2131,3.876,13.72,1111122 
DISL,ioos:station:DISL:KATA:1,2013-04-05T07:00:00Z,30.2583,-88.2131,3.842,12.93,1111122 
DISL,ioos:station:DISL:KATA:1,2013-04-05T07:30:00Z,30.2583,-88.2131,3.834,12.71,1111122 
DISL,ioos:station:DISL:KATA:1,2013-04-05T08:00:00Z,30.2583,-88.2131,3.831,11.49,1111122 
DISL,ioos:station:DISL:KATA:1,2013-04-05T08:30:00Z,30.2583,-88.2131,3.818,11.91,1111122 
DISL,ioos:station:DISL:KATA:1,2013-04-05T09:00:00Z,30.2583,-88.2131,3.81,12.56,1111122 
DISL,ioos:station:DISL:KATA:1,2013-04-05T09:30:00Z,30.2583,-88.2131,3.813,12.75,1111122 
DISL,ioos:station:DISL:KATA:1,2013-04-05T10:00:00Z,30.2583,-88.2131,3.834,12.03,1111122 
DISL,ioos:station:DISL:KATA:1,2013-04-05T10:30:00Z,30.2583,-88.2131,3.802,11.69,1111122 
DISL,ioos:station:DISL:KATA:1,2013-04-05T11:00:00Z,30.2583,-88.2131,3.793,11.59,1111122 
DISL,ioos:station:DISL:KATA:1,2013-04-05T11:30:00Z,30.2583,-88.2131,3.77,11.35,1111122 
DISL,ioos:station:DISL:KATA:1,2013-04-05T12:00:00Z,30.2583,-88.2131,3.736,11.23,1111122 
DISL,ioos:station:DISL:KATA:1,2013-04-05T12:30:00Z,30.2583,-88.2131,3.774,11.09,1111122 
DISL,ioos:station:DISL:KATA:1,2013-04-05T13:00:00Z,30.2583,-88.2131,3.765,10.97,1111122 
DISL,ioos:station:DISL:KATA:1,2013-04-05T13:30:00Z,30.2583,-88.2131,3.789,10.97,1111122 
DISL,ioos:station:DISL:KATA:1,2013-04-05T14:00:00Z,30.2583,-88.2131,3.805,10.91,1111122 
DISL,ioos:station:DISL:KATA:1,2013-04-05T14:30:00Z,30.2583,-88.2131,3.824,10.84,1111122 
DISL,ioos:station:DISL:KATA:1,2013-04-05T15:00:00Z,30.2583,-88.2131,3.846,11.02,1111122 
DISL,ioos:station:DISL:KATA:1,2013-04-05T15:30:00Z,30.2583,-88.2131,3.857,11.08,1111122 
DISL,ioos:station:DISL:KATA:1,2013-04-05T16:00:00Z,30.2583,-88.2131,3.876,11.07,1111122 
DISL,ioos:station:DISL:KATA:1,2013-04-05T16:30:00Z,30.2583,-88.2131,3.881,11.42,1111122 
DISL,ioos:station:DISL:KATA:1,2013-04-05T17:00:00Z,30.2583,-88.2131,3.864,11.78,1111122 
DISL,ioos:station:DISL:KATA:1,2013-04-05T17:30:00Z,30.2583,-88.2131,3.853,11.96,1111122 
DISL,ioos:station:DISL:KATA:1,2013-04-05T18:00:00Z,30.2583,-88.2131,3.858,12.21,1111122 
DISL,ioos:station:DISL:KATA:1,2013-04-05T18:30:00Z,30.2583,-88.2131,3.871,12.24,1111122 
DISL,ioos:station:DISL:KATA:1,2013-04-05T19:00:00Z,30.2583,-88.2131,3.881,12.48,1111122 
DISL,ioos:station:DISL:KATA:1,2013-04-05T19:30:00Z,30.2583,-88.2131,3.907,12.54,1111122 
DISL,ioos:station:DISL:KATA:1,2013-04-05T20:00:00Z,30.2583,-88.2131,3.942,12.34,1111122 
DISL,ioos:station:DISL:KATA:1,2013-04-05T20:30:00Z,30.2583,-88.2131,3.944,12.35,1111122 
DISL,ioos:station:DISL:KATA:1,2013-04-05T21:00:00Z,30.2583,-88.2131,3.973,12.48,1111122 
DISL,ioos:station:DISL:KATA:1,2013-04-05T21:30:00Z,30.2583,-88.2131,3.996,12.56,1111122 
DISL,ioos:station:DISL:KATA:1,2013-04-05T22:00:00Z,30.2583,-88.2131,4.001,12.62,1111122 
DISL,ioos:station:DISL:KATA:1,2013-04-05T22:30:00Z,30.2583,-88.2131,4.011,12.69,1111122 
DISL,ioos:station:DISL:KATA:1,2013-04-05T23:00:00Z,30.2583,-88.2131,4.016,12.71,1111122 
DISL,ioos:station:DISL:KATA:1,2013-04-05T23:30:00Z,30.2583,-88.2131,4.031,12.79,1111122 
DISL,ioos:station:DISL:KATA:1,2013-04-06T00:00:00Z,30.2583,-88.2131,4.033,12.91,1111122 
DISL,ioos:station:DISL:KATA:1,2013-04-06T00:30:00Z,30.2583,-88.2131,4.028,13.04,1111122 
DISL,ioos:station:DISL:KATA:1,2013-04-06T01:00:00Z,30.2583,-88.2131,4.016,13.13,1111122 
DISL,ioos:station:DISL:KATA:1,2013-04-06T01:30:00Z,30.2583,-88.2131,4.017,13.19,1111122 
DISL,ioos:station:DISL:KATA:1,2013-04-06T02:00:00Z,30.2583,-88.2131,4.018,13.95,1111122 
DISL,ioos:station:DISL:KATA:1,2013-04-06T02:30:00Z,30.2583,-88.2131,4.01,14.75,1111122 
DISL,ioos:station:DISL:KATA:1,2013-04-06T03:00:00Z,30.2583,-88.2131,4.01,15.15,1111122 
DISL,ioos:station:DISL:KATA:1,2013-04-06T03:30:00Z,30.2583,-88.2131,4.002,15.23,1111122 
DISL,ioos:station:DISL:KATA:1,2013-04-06T04:00:00Z,30.2583,-88.2131,3.974,15.78,1111122 
DISL,ioos:station:DISL:KATA:1,2013-04-06T04:30:00Z,30.2583,-88.2131,3.939,16.4,1111122 
DISL,ioos:station:DISL:KATA:1,2013-04-06T05:00:00Z,30.2583,-88.2131,3.9,16.59,1111122 
DISL,ioos:station:DISL:KATA:1,2013-04-06T05:30:00Z,30.2583,-88.2131,3.862,16.59,1111122 
DISL,ioos:station:DISL:KATA:1,2013-04-06T06:00:00Z,30.2583,-88.2131,3.829,16.54,1111122 
DISL,ioos:station:DISL:KATA:1,2013-04-06T06:30:00Z,30.2583,-88.2131,3.8,16.43,1111122 
DISL,ioos:station:DISL:KATA:1,2013-04-06T07:00:00Z,30.2583,-88.2131,3.779,16.39,1111122 
DISL,ioos:station:DISL:KATA:1,2013-04-06T07:30:00Z,30.2583,-88.2131,3.764,16.27,1111122 
DISL,ioos:station:DISL:KATA:1,2013-04-06T08:00:00Z,30.2583,-88.2131,3.752,16.46,1111122 
DISL,ioos:station:DISL:KATA:1,2013-04-06T08:30:00Z,30.2583,-88.2131,3.738,16.74,1111122 
DISL,ioos:station:DISL:KATA:1,2013-04-06T09:00:00Z,30.2583,-88.2131,3.73,16.95,1111122 
DISL,ioos:station:DISL:KATA:1,2013-04-06T09:30:00Z,30.2583,-88.2131,3.723,16.96,1111122 
DISL,ioos:station:DISL:KATA:1,2013-04-06T10:00:00Z,30.2583,-88.2131,3.72,16.97,1111122 
DISL,ioos:station:DISL:KATA:1,2013-04-06T10:30:00Z,30.2583,-88.2131,3.734,17.22,1111122 
DISL,ioos:station:DISL:KATA:1,2013-04-06T11:00:00Z,30.2583,-88.2131,3.74,17.48,1111122 
DISL,ioos:station:DISL:KATA:1,2013-04-06T11:30:00Z,30.2583,-88.2131,3.756,17.62,1111122 
DISL,ioos:station:DISL:KATA:1,2013-04-06T12:00:00Z,30.2583,-88.2131,3.779,17.7,1111122 
DISL,ioos:station:DISL:KATA:1,2013-04-06T12:30:00Z,30.2583,-88.2131,3.792,17.79,1111122 
DISL,ioos:station:DISL:KATA:1,2013-04-06T13:00:00Z,30.2583,-88.2131,3.817,17.91,1111122 
DISL,ioos:station:DISL:KATA:1,2013-04-06T13:30:00Z,30.2583,-88.2131,3.847,17.98,1111122 
DISL,ioos:station:DISL:KATA:1,2013-04-06T14:00:00Z,30.2583,-88.2131,3.867,18.07,1111122 